2021-050B (48841 NORAD) Tracking and Keplerian Element Data

This shows tracking and keplerian element data for the satellite.

Feedback or suggestion? Click here.




ElementValue
Catalog48841
Name2021-050B
Epoch Orbit1918
Epoch Day288.19554398
Epoch Year2021
RAAN358.0537
Inclination97.5016
Eccentricity0.0012846
Argument of Perigee187.0384
Mean Anonmoly257.7606
Mean Motion15.24084148
Decay Rate-7.3E-07
L11 48841U 21050B 21288.19554398 -.00000073 00000-0 00000+0 0 9998
L22 48841 97.5016 358.0537 0012846 187.0384 257.7606 15.24084148 19187

Live tracking and technical data element details for 2021-050B (NORAD 48841). 2021-050B can be tracked NOW for your location showing map with azimuth and elevation plus other details from your city location.

Track the satellite on the map from your city or location and see movement details for azimuth, elevation, latitude, longitude, range, height, and movement on the map or in text.







IsCatalogInMostPopularTable: catalog: 48841, numindb: 35
Update: records affected: 1



GetName: 48841 2021-050B

Hit Count: updated at: Tue, 19 Oct 2021 08:50:54 GMT